Flag for Germany Weather past 2 weeks in Wittenberg, Saxony-Anhalt, Germany

Now
43 °F

Passing clouds.


Feels Like: 39 °F
Forecast: 40 / 47 °F
Wind: 6 mph from South

Location: Holzdorf

Current Time: Mar 29, 2015 at 1:38:01 AM

Latest Report: Mar 29, 2015 at 12:20 AM


Visibility: N/A

Pressure: 29.83 "Hg

Humidity: 76%

Dew point: 36 °F

Location of WittenbergLocation

Historic Weather in Wittenberg — Graph

°F

Wittenberg temperature yesterday

Maximum temperature yesterday: 50 °F (at 4:20 PM)
Minimum temperature yesterday: 39 °F (at 7:20 PM)
Average temperature yesterday: 44 °F

Past Weeks' High & Low Weather Summary

 TemperatureHumidityPressure
High64 °F (Mar 25, 3:20 PM)100% (Mar 14, 9:20 PM)30.42 "Hg (Mar 14, 9:20 PM)
Low21 °F (Mar 20, 6:20 AM)23% (Mar 18, 5:00 PM)29.62 "Hg (Mar 26, 12:20 AM)
Average42 °F73%30.12 "Hg
* Reported Mar 14 12:20 AM — Mar 29 12:20 AM, Wittenberg, Weather by CustomWeather, © 2015

Note: Actual official high and low records may vary slightly from our data, if they occured in-between our weather recording intervals... More about our weather records

Advertising

Wittenberg weather history for previous 24 hours

 ConditionsComfort  
Time TempWeatherWind HumidityBarometerVisibility
12:20 AM
Sun, Mar 29
43 °FPassing clouds.6 mph76%29.83 "HgN/A
11:20 PM
Sat, Mar 28
45 °FPassing clouds.7 mph66%29.86 "HgN/A
10:20 PM45 °FPassing clouds.8 mph61%29.89 "HgN/A
9:20 PM43 °FPassing clouds.8 mph66%29.92 "HgN/A
8:20 PM41 °FPassing clouds.6 mph70%29.95 "HgN/A
7:20 PM39 °FPassing clouds.7 mph70%29.95 "HgN/A
6:20 PM45 °FPassing clouds.5 mph57%29.98 "HgN/A
5:20 PM50 °FPassing clouds.7 mph43%29.98 "HgN/A
4:20 PM50 °FPassing clouds.1 mph43%30.01 "HgN/A
3:20 PM48 °FPartly sunny.7 mph46%30.04 "HgN/A
2:20 PM46 °FPartly sunny.7 mph53%30.07 "HgN/A
1:20 PM46 °FPartly sunny.9 mph53%30.09 "HgN/A
12:20 PM45 °FBroken clouds.8 mph61%30.12 "HgN/A
11:20 AM45 °FBroken clouds.8 mph71%30.12 "HgN/A
10:20 AM45 °FBroken clouds.7 mph76%30.15 "HgN/A
9:20 AM43 °FBroken clouds.8 mph81%30.15 "Hg4 mi
8:20 AM43 °FBroken clouds.9 mph81%30.15 "Hg4 mi
7:20 AM41 °FFog.10 mph87%30.15 "Hg3 mi
6:20 AM41 °FFog.9 mph87%30.15 "Hg3 mi
5:20 AM41 °FPassing clouds.9 mph87%30.15 "Hg4 mi
4:20 AM43 °FPassing clouds.12 mph81%30.12 "Hg4 mi
3:20 AM43 °FPartly cloudy.9 mph81%30.12 "Hg5 mi
2:20 AM43 °FPassing clouds.13 mph81%30.12 "Hg5 mi
1:20 AM43 °FPartly cloudy.13 mph87%30.09 "Hg5 mi
Weather by CustomWeather, © 2015

See weather overviewHow to use our weather pages